星链-5134 (STARLINK-5134 )

导读 | 豆包AI

STARLINK-5134是美国SpaceX公司星链(Starlink)卫星互联网项目中的一颗卫星,于2022年10月5日发射入轨,属于星链低轨卫星星座的组成部分,旨在为全球提供高速卫星互联网服务,补充全球网络覆盖盲区,推动全球互联网络建设。

基本信息
目录编号:
53976
目录名称:
STARLINK-5134
国际标识:
2022-125N
轨道中心:
EARTH
卫星名称:
星链-5134
卫星全名:
星链-5134 (STARLINK-5134 )
卫星状态:
在轨 (已飞行1257 天)
发射日期:
2022-10-05 UTC
国别 :
美国 (US)
星等 :
--
轨道信息
数据来源 国际轨道数据
星历时间: 2026-03-15T01:44:33+0800
15小时前
查看轨道信息
半长轴: 6917.841km
偏心率: 0.0001227
轨道倾角: 53.217°
近地点辐角 96.567°
升交点赤经 181.571°
平近点角 263.547°
近地点: 538.855km
远地点: 540.553km
周期: 95.437分钟
每日圈数: 15.08853
详细信息
固有亮度:
5
最大亮度:
2.5
卫星平台:
Starlink v1.5
覆盖范围:
全球
运营商:
太空探索技术公司
运营商所在国:
美国
制造商(研发单位):
太空探索技术公司
制造商所在国:
美国
使用方式:
暂无
卫星简介
星链(Starlink)计划是由太空探索技术公司(SpaceX)提出的一个巨型低轨卫星互联网星座项目,计划在2019年至2024年间在太空搭建由约1.2万颗卫星组成的“星链”网络,其中1584颗将部署在地球上空550千米处的近地轨道,并从2020年开始工作。该卫星仍在工作。
2D轨道图
3D轨道图
轨道高度分析图
轨道倾角分析图
轨道综合分析图
查看轨道综合分析图